Year,Month,Day,Hour,Minute,Value (Times are PST for temperature in C)
2011,05,20,00,00,9.30
2011,05,20,00,01,9.30
2011,05,20,00,02,9.20
2011,05,20,00,03,9.20
2011,05,20,00,04,9.20
2011,05,20,00,05,9.10
2011,05,20,00,06,9.10
2011,05,20,00,07,9.10
2011,05,20,00,08,9.10
2011,05,20,00,09,9.00
2011,05,20,00,10,9.00
2011,05,20,00,11,8.90
2011,05,20,00,12,8.90
2011,05,20,00,13,8.90
2011,05,20,00,14,8.90
2011,05,20,00,15,8.90
2011,05,20,00,16,8.80
2011,05,20,00,17,8.80
2011,05,20,00,18,8.80
2011,05,20,00,19,8.80
2011,05,20,00,20,8.80
2011,05,20,00,21,8.80
2011,05,20,00,22,8.80
2011,05,20,00,23,8.80
2011,05,20,00,24,8.70
2011,05,20,00,25,8.70
2011,05,20,00,26,8.70
2011,05,20,00,27,8.70
2011,05,20,00,28,8.70
2011,05,20,00,29,8.70
2011,05,20,00,30,8.70
2011,05,20,00,31,8.60
2011,05,20,00,32,8.60
2011,05,20,00,33,8.60
2011,05,20,00,34,8.60
2011,05,20,00,35,8.60
2011,05,20,00,36,8.50
2011,05,20,00,37,8.50
2011,05,20,00,38,8.50
2011,05,20,00,39,8.50
2011,05,20,00,40,8.40
2011,05,20,00,41,8.40
2011,05,20,00,42,8.40
2011,05,20,00,43,8.40
2011,05,20,00,44,8.40
2011,05,20,00,45,8.40
2011,05,20,00,46,8.40
2011,05,20,00,47,8.40
2011,05,20,00,48,8.40
2011,05,20,00,49,8.40
2011,05,20,00,50,8.40
2011,05,20,00,51,8.30
2011,05,20,00,52,8.30
2011,05,20,00,53,8.30
2011,05,20,00,54,8.30
2011,05,20,00,55,8.30
2011,05,20,00,56,8.30
2011,05,20,00,57,8.30
2011,05,20,00,58,8.20
2011,05,20,00,59,8.20
2011,05,20,01,00,8.20
2011,05,20,01,01,8.20
2011,05,20,01,02,8.20
2011,05,20,01,03,8.20
2011,05,20,01,04,8.10
2011,05,20,01,05,8.10
2011,05,20,01,06,8.10
2011,05,20,01,07,8.10
2011,05,20,01,08,8.10
2011,05,20,01,09,8.10
2011,05,20,01,10,8.10
2011,05,20,01,11,8.00
2011,05,20,01,12,8.00
2011,05,20,01,13,8.00
2011,05,20,01,14,8.00
2011,05,20,01,15,8.00
2011,05,20,01,16,8.00
2011,05,20,01,17,8.00
2011,05,20,01,18,8.00
2011,05,20,01,19,7.90
2011,05,20,01,20,7.90
2011,05,20,01,21,7.90
2011,05,20,01,22,7.90
2011,05,20,01,23,7.90
2011,05,20,01,24,7.90
2011,05,20,01,25,7.80
2011,05,20,01,26,7.80
2011,05,20,01,27,7.80
2011,05,20,01,28,7.80
2011,05,20,01,29,7.80
2011,05,20,01,30,7.80
2011,05,20,01,31,7.80
2011,05,20,01,32,7.70
2011,05,20,01,33,7.70
2011,05,20,01,34,7.70
2011,05,20,01,35,7.70
2011,05,20,01,36,7.70
2011,05,20,01,37,7.60
2011,05,20,01,38,7.60
2011,05,20,01,39,7.60
2011,05,20,01,40,7.60
2011,05,20,01,41,7.60
2011,05,20,01,42,7.60
2011,05,20,01,43,7.60
2011,05,20,01,44,7.60
2011,05,20,01,45,7.60
2011,05,20,01,46,7.60
2011,05,20,01,47,7.60
2011,05,20,01,48,7.60
2011,05,20,01,49,7.50
2011,05,20,01,50,7.50
2011,05,20,01,51,7.50
2011,05,20,01,52,7.50
2011,05,20,01,53,7.50
2011,05,20,01,54,7.40
2011,05,20,01,55,7.40
2011,05,20,01,56,7.40
2011,05,20,01,57,7.40
2011,05,20,01,58,7.40
2011,05,20,01,59,7.30
2011,05,20,02,00,7.30
2011,05,20,02,01,7.30
2011,05,20,02,02,7.30
2011,05,20,02,03,7.30
2011,05,20,02,04,7.20
2011,05,20,02,05,7.20
2011,05,20,02,06,7.20
2011,05,20,02,07,7.20
2011,05,20,02,08,7.20
2011,05,20,02,09,7.20
2011,05,20,02,10,7.20
2011,05,20,02,11,7.20
2011,05,20,02,12,7.20
2011,05,20,02,13,7.20
2011,05,20,02,14,7.20
2011,05,20,02,15,7.10
2011,05,20,02,16,7.10
2011,05,20,02,17,7.10
2011,05,20,02,18,7.10
2011,05,20,02,19,7.10
2011,05,20,02,20,7.10
2011,05,20,02,21,7.10
2011,05,20,02,22,7.10
2011,05,20,02,23,7.10
2011,05,20,02,24,7.00
2011,05,20,02,25,7.00
2011,05,20,02,26,7.00
2011,05,20,02,27,7.00
2011,05,20,02,28,7.00
2011,05,20,02,29,7.00
2011,05,20,02,30,6.90
2011,05,20,02,31,7.00
2011,05,20,02,32,6.90
2011,05,20,02,33,6.90
2011,05,20,02,34,6.90
2011,05,20,02,35,6.90
2011,05,20,02,36,6.90
2011,05,20,02,37,6.90
2011,05,20,02,38,6.90
2011,05,20,02,39,6.90
2011,05,20,02,40,6.90
2011,05,20,02,41,6.90
2011,05,20,02,42,6.80
2011,05,20,02,43,6.80
2011,05,20,02,44,6.80
2011,05,20,02,45,6.80
2011,05,20,02,46,6.80
2011,05,20,02,47,6.80
2011,05,20,02,48,6.70
2011,05,20,02,49,6.70
2011,05,20,02,50,6.70
2011,05,20,02,51,6.70
2011,05,20,02,52,6.70
2011,05,20,02,53,6.70
2011,05,20,02,54,6.70
2011,05,20,02,55,6.70
2011,05,20,02,56,6.70
2011,05,20,02,57,6.70
2011,05,20,02,58,6.60
2011,05,20,02,59,6.70
2011,05,20,03,00,6.70
2011,05,20,03,01,6.70
2011,05,20,03,02,6.60
2011,05,20,03,06,6.60
2011,05,20,03,07,6.60
2011,05,20,03,08,6.60
2011,05,20,03,09,6.60
2011,05,20,03,10,6.60
2011,05,20,03,11,6.60
2011,05,20,03,12,6.60
2011,05,20,03,13,6.50
2011,05,20,03,14,6.50
2011,05,20,03,15,6.50
2011,05,20,03,16,6.50
2011,05,20,03,17,6.40
2011,05,20,03,18,6.40
2011,05,20,03,19,6.40
2011,05,20,03,20,6.40
2011,05,20,03,21,6.40
2011,05,20,03,22,6.40
2011,05,20,03,23,6.40
2011,05,20,03,24,6.40
2011,05,20,03,25,6.30
2011,05,20,03,26,6.30
2011,05,20,03,27,6.30
2011,05,20,03,28,6.30
2011,05,20,03,29,6.30
2011,05,20,03,30,6.30
2011,05,20,03,31,6.20
2011,05,20,03,32,6.20
2011,05,20,03,33,6.20
2011,05,20,03,34,6.20
2011,05,20,03,35,6.20
2011,05,20,03,36,6.20
2011,05,20,03,37,6.20
2011,05,20,03,38,6.10
2011,05,20,03,39,6.10
2011,05,20,03,40,6.10
2011,05,20,03,41,6.10
2011,05,20,03,42,6.10
2011,05,20,03,43,6.10
2011,05,20,03,44,6.10
2011,05,20,03,45,6.10
2011,05,20,03,46,6.10
2011,05,20,03,47,6.10
2011,05,20,03,48,6.10
2011,05,20,03,49,6.00
2011,05,20,03,50,6.00
2011,05,20,03,51,6.00
2011,05,20,03,52,6.00
2011,05,20,03,53,6.00
2011,05,20,03,54,6.10
2011,05,20,03,55,6.10
2011,05,20,03,56,6.10
2011,05,20,03,57,6.10
2011,05,20,03,58,6.10
2011,05,20,03,59,6.10
2011,05,20,04,00,6.10
2011,05,20,04,01,6.10
2011,05,20,04,02,6.10
2011,05,20,04,03,6.10
2011,05,20,04,04,6.10
2011,05,20,04,05,6.10
2011,05,20,04,06,6.00
2011,05,20,04,07,6.00
2011,05,20,04,08,6.00
2011,05,20,04,09,6.00
2011,05,20,04,10,6.00
2011,05,20,04,11,5.90
2011,05,20,04,12,5.90
2011,05,20,04,13,5.90
2011,05,20,04,14,5.90
2011,05,20,04,15,5.90
2011,05,20,04,16,5.90
2011,05,20,04,17,5.90
2011,05,20,04,18,6.00
2011,05,20,04,19,6.00
2011,05,20,04,20,6.00
2011,05,20,04,21,6.00
2011,05,20,04,22,6.00
2011,05,20,04,23,6.00
2011,05,20,04,24,6.00
2011,05,20,04,25,6.00
2011,05,20,04,26,6.00
2011,05,20,04,27,6.00
2011,05,20,04,28,6.00
2011,05,20,04,29,6.10
2011,05,20,04,30,6.10
2011,05,20,04,31,6.10
2011,05,20,04,32,6.10
2011,05,20,04,33,6.10
2011,05,20,04,34,6.10
2011,05,20,04,35,6.10
2011,05,20,04,36,6.10
2011,05,20,04,37,6.10
2011,05,20,04,38,6.10
2011,05,20,04,39,6.10
2011,05,20,04,40,6.10
2011,05,20,04,41,6.10
2011,05,20,04,42,6.10
2011,05,20,04,43,6.10
2011,05,20,04,44,6.10
2011,05,20,04,45,6.10
2011,05,20,04,46,6.10
2011,05,20,04,47,6.10
2011,05,20,04,48,6.10
2011,05,20,04,49,6.00
2011,05,20,04,50,6.00
2011,05,20,04,51,6.00
2011,05,20,04,52,5.90
2011,05,20,04,53,5.90
2011,05,20,04,54,5.90
2011,05,20,04,55,5.90
2011,05,20,04,56,5.90
2011,05,20,04,57,5.90
2011,05,20,04,58,5.90
2011,05,20,04,59,5.90
2011,05,20,05,00,5.90
2011,05,20,05,01,5.80
2011,05,20,05,02,5.80
2011,05,20,05,03,5.80
2011,05,20,05,04,5.80
2011,05,20,05,05,5.80
2011,05,20,05,06,5.80
2011,05,20,05,07,5.80
2011,05,20,05,08,5.70
2011,05,20,05,09,5.70
2011,05,20,05,10,5.70
2011,05,20,05,11,5.70
2011,05,20,05,12,5.70
2011,05,20,05,13,5.70
2011,05,20,05,14,5.70
2011,05,20,05,15,5.60
2011,05,20,05,16,5.60
2011,05,20,05,17,5.60
2011,05,20,05,18,5.60
2011,05,20,05,19,5.60
2011,05,20,05,20,5.50
2011,05,20,05,21,5.50
2011,05,20,05,22,5.50
2011,05,20,05,23,5.50
2011,05,20,05,24,5.50
2011,05,20,05,25,5.50
2011,05,20,05,26,5.40
2011,05,20,05,27,5.40
2011,05,20,05,28,5.40
2011,05,20,05,29,5.40
2011,05,20,05,30,5.40
2011,05,20,05,31,5.40
2011,05,20,05,32,5.40
2011,05,20,05,33,5.40
2011,05,20,05,34,5.30
2011,05,20,05,35,5.30
2011,05,20,05,36,5.30
2011,05,20,05,37,5.30
2011,05,20,05,38,5.30
2011,05,20,05,39,5.30
2011,05,20,05,40,5.30
2011,05,20,05,41,5.30
2011,05,20,05,42,5.30
2011,05,20,05,43,5.30
2011,05,20,05,44,5.30
2011,05,20,05,45,5.30
2011,05,20,05,46,5.40
2011,05,20,05,47,5.40
2011,05,20,05,48,5.40
2011,05,20,05,49,5.40
2011,05,20,05,50,5.40
2011,05,20,05,51,5.40
2011,05,20,05,52,5.40
2011,05,20,05,53,5.40
2011,05,20,05,54,5.40
2011,05,20,05,55,5.40
2011,05,20,05,56,5.40
2011,05,20,05,57,5.40
2011,05,20,05,58,5.40
2011,05,20,05,59,5.50
2011,05,20,06,00,5.50
2011,05,20,06,01,5.50
2011,05,20,06,02,5.40
2011,05,20,06,03,5.40
2011,05,20,06,04,5.40
2011,05,20,06,05,5.40
2011,05,20,06,06,5.40
2011,05,20,06,07,5.40
2011,05,20,06,08,5.40
2011,05,20,06,09,5.40
2011,05,20,06,10,5.40
2011,05,20,06,11,5.40
2011,05,20,06,12,5.40
2011,05,20,06,13,5.40
2011,05,20,06,14,5.40
2011,05,20,06,15,5.40
2011,05,20,06,16,5.40
2011,05,20,06,17,5.40
2011,05,20,06,18,5.40
2011,05,20,06,19,5.40
2011,05,20,06,20,5.40
2011,05,20,06,21,5.40
2011,05,20,06,22,5.40
2011,05,20,06,23,5.40
2011,05,20,06,24,5.50
2011,05,20,06,25,5.50
2011,05,20,06,26,5.50
2011,05,20,06,27,5.60
2011,05,20,06,28,5.60
2011,05,20,06,29,5.60
2011,05,20,06,30,5.60
2011,05,20,06,31,5.60
2011,05,20,06,32,5.60
2011,05,20,06,33,5.70
2011,05,20,06,34,5.70
2011,05,20,06,35,5.70
2011,05,20,06,36,5.70
2011,05,20,06,37,5.70
2011,05,20,06,38,5.80
2011,05,20,06,39,5.80
2011,05,20,06,40,5.80
2011,05,20,06,41,5.80
2011,05,20,06,42,5.90
2011,05,20,06,43,5.90
2011,05,20,06,44,5.90
2011,05,20,06,45,5.90
2011,05,20,06,46,5.90
2011,05,20,06,47,6.00
2011,05,20,06,48,6.00
2011,05,20,06,49,6.00
2011,05,20,06,50,6.00
2011,05,20,06,51,6.00
2011,05,20,06,52,6.00
2011,05,20,06,53,6.10
2011,05,20,06,54,6.10
2011,05,20,06,55,6.10
2011,05,20,06,56,6.10
2011,05,20,06,57,6.10
2011,05,20,06,58,6.10
2011,05,20,06,59,6.20
2011,05,20,07,00,6.20
2011,05,20,07,01,6.20
2011,05,20,07,02,6.30
2011,05,20,07,03,6.30
2011,05,20,07,04,6.30
2011,05,20,07,05,6.40
2011,05,20,07,06,6.40
2011,05,20,07,07,6.40
2011,05,20,07,08,6.40
2011,05,20,07,09,6.50
2011,05,20,07,10,6.50
2011,05,20,07,11,6.60
2011,05,20,07,12,6.60
2011,05,20,07,13,6.60
2011,05,20,07,14,6.60
2011,05,20,07,15,6.70
2011,05,20,07,16,6.70
2011,05,20,07,17,6.70
2011,05,20,07,18,6.70
2011,05,20,07,19,6.80
2011,05,20,07,20,6.80
2011,05,20,07,21,6.80
2011,05,20,07,22,6.80
2011,05,20,07,23,6.80
2011,05,20,07,24,6.90
2011,05,20,07,25,6.90
2011,05,20,07,26,6.90
2011,05,20,07,27,7.00
2011,05,20,07,28,7.10
2011,05,20,07,29,7.10
2011,05,20,07,30,7.10
2011,05,20,07,31,7.20
2011,05,20,07,32,7.20
2011,05,20,07,33,7.30
2011,05,20,07,34,7.30
2011,05,20,07,35,7.40
2011,05,20,07,36,7.40
2011,05,20,07,37,7.50
2011,05,20,07,38,7.60
2011,05,20,07,39,7.70
2011,05,20,07,40,7.80
2011,05,20,07,41,7.80
2011,05,20,07,42,7.90
2011,05,20,07,43,8.00
2011,05,20,07,44,8.00
2011,05,20,07,45,8.10
2011,05,20,07,46,8.20
2011,05,20,07,47,8.20
2011,05,20,07,48,8.30
2011,05,20,07,49,8.30
2011,05,20,07,50,8.40
2011,05,20,07,51,8.50
2011,05,20,07,52,8.50
2011,05,20,07,53,8.60
2011,05,20,07,54,8.70
2011,05,20,07,55,8.80
2011,05,20,07,56,8.80
2011,05,20,07,57,8.90
2011,05,20,07,58,9.00
2011,05,20,07,59,9.10
2011,05,20,08,00,9.20
2011,05,20,08,01,9.30
2011,05,20,08,02,9.40
2011,05,20,08,03,9.50
2011,05,20,08,04,9.70
2011,05,20,08,05,9.80
2011,05,20,08,06,10.00
2011,05,20,08,07,10.10
2011,05,20,08,08,10.30
2011,05,20,08,09,10.50
2011,05,20,08,10,10.60
2011,05,20,08,11,10.80
2011,05,20,08,12,11.00
2011,05,20,08,13,11.10
2011,05,20,08,14,11.30
2011,05,20,08,15,11.40
2011,05,20,08,16,11.60
2011,05,20,08,17,11.70
2011,05,20,08,18,11.80
2011,05,20,08,19,12.00
2011,05,20,08,20,12.10
2011,05,20,08,21,12.20
2011,05,20,08,22,12.30
2011,05,20,08,23,12.50
2011,05,20,08,24,12.60
2011,05,20,08,25,12.70
2011,05,20,08,26,12.80
2011,05,20,08,27,12.90
2011,05,20,08,28,12.90
2011,05,20,08,29,13.00
2011,05,20,08,30,13.10
2011,05,20,08,31,13.10
2011,05,20,08,32,13.20
2011,05,20,08,33,13.30
2011,05,20,08,34,13.30
2011,05,20,08,35,13.40
2011,05,20,08,36,13.50
2011,05,20,08,37,13.60
2011,05,20,08,38,13.60
2011,05,20,08,39,13.70
2011,05,20,08,40,13.70
2011,05,20,08,41,13.70
2011,05,20,08,42,13.80
2011,05,20,08,43,13.80
2011,05,20,08,44,13.90
2011,05,20,08,45,14.00
2011,05,20,08,46,14.00
2011,05,20,08,47,14.10
2011,05,20,08,48,14.10
2011,05,20,08,49,14.10
2011,05,20,08,50,14.10
2011,05,20,08,51,14.20
2011,05,20,08,52,14.20
2011,05,20,08,53,14.20
2011,05,20,08,54,14.30
2011,05,20,08,55,14.30
2011,05,20,08,56,14.40
2011,05,20,08,57,14.40
2011,05,20,08,58,14.40
2011,05,20,08,59,14.40
2011,05,20,09,00,14.40
2011,05,20,09,01,14.50
2011,05,20,09,02,14.60
2011,05,20,09,03,14.60
2011,05,20,09,04,14.70
2011,05,20,09,05,14.80
2011,05,20,09,06,14.80
2011,05,20,09,07,15.00
2011,05,20,09,08,15.00
2011,05,20,09,09,15.00
2011,05,20,09,10,15.00
2011,05,20,09,11,15.20
2011,05,20,09,12,15.30
2011,05,20,09,13,15.40
2011,05,20,09,14,15.50
2011,05,20,09,15,15.50
2011,05,20,09,16,15.50
2011,05,20,09,17,15.50
2011,05,20,09,18,15.60
2011,05,20,09,19,15.60
2011,05,20,09,20,15.70
2011,05,20,09,21,15.70
2011,05,20,09,22,15.80
2011,05,20,09,23,15.80
2011,05,20,09,24,15.80
2011,05,20,09,25,15.80
2011,05,20,09,26,15.90
2011,05,20,09,27,16.00
2011,05,20,09,28,16.00
2011,05,20,09,29,16.10
2011,05,20,09,30,16.20
2011,05,20,09,31,16.30
2011,05,20,09,32,16.30
2011,05,20,09,33,16.40
2011,05,20,09,34,16.30
2011,05,20,09,35,16.30
2011,05,20,09,36,16.20
2011,05,20,09,37,16.00
2011,05,20,09,38,15.90
2011,05,20,09,39,15.90
2011,05,20,09,40,15.90
2011,05,20,09,41,15.90
2011,05,20,09,42,15.90
2011,05,20,09,43,15.80
2011,05,20,09,44,15.80
2011,05,20,09,45,15.90
2011,05,20,09,46,15.90
2011,05,20,09,47,16.00
2011,05,20,09,48,16.10
2011,05,20,09,49,16.10
2011,05,20,09,50,16.10
2011,05,20,09,51,16.20
2011,05,20,09,52,16.20
2011,05,20,09,53,16.30
2011,05,20,09,54,16.40
2011,05,20,09,55,16.40
2011,05,20,09,56,16.50
2011,05,20,09,57,16.50
2011,05,20,09,58,16.50
2011,05,20,09,59,16.50
2011,05,20,10,00,16.50
2011,05,20,10,01,16.50
2011,05,20,10,02,16.50
2011,05,20,10,03,16.50
2011,05,20,10,04,16.50
2011,05,20,10,05,16.50
2011,05,20,10,06,16.60
2011,05,20,10,07,16.60
2011,05,20,10,08,16.60
2011,05,20,10,09,16.70
2011,05,20,10,10,16.70
2011,05,20,10,11,16.80
2011,05,20,10,12,16.80
2011,05,20,10,13,16.90
2011,05,20,10,14,16.90
2011,05,20,10,15,17.00
2011,05,20,10,16,17.00
2011,05,20,10,17,17.10
2011,05,20,10,18,17.10
2011,05,20,10,19,17.10
2011,05,20,10,20,17.10
2011,05,20,10,21,17.10
2011,05,20,10,22,17.00
2011,05,20,10,23,17.00
2011,05,20,10,24,17.00
2011,05,20,10,25,17.00
2011,05,20,10,26,17.10
2011,05,20,10,27,17.20
2011,05,20,10,28,17.20
2011,05,20,10,29,17.30
2011,05,20,10,30,17.40
2011,05,20,10,31,17.50
2011,05,20,10,32,17.60
2011,05,20,10,33,17.60
2011,05,20,10,34,17.70
2011,05,20,10,35,17.70
2011,05,20,10,36,17.80
2011,05,20,10,37,17.80
2011,05,20,10,38,17.80
2011,05,20,10,39,17.70
2011,05,20,10,40,17.70
2011,05,20,10,41,17.70
2011,05,20,10,42,17.70
2011,05,20,10,43,17.70
2011,05,20,10,44,17.70
2011,05,20,10,45,17.70
2011,05,20,10,46,17.80
2011,05,20,10,47,17.80
2011,05,20,10,48,17.90
2011,05,20,10,49,17.90
2011,05,20,10,50,17.80
2011,05,20,10,51,17.80
2011,05,20,10,52,17.90
2011,05,20,10,53,17.90
2011,05,20,10,54,18.00
2011,05,20,10,55,18.00
2011,05,20,10,56,18.10
2011,05,20,10,57,18.20
2011,05,20,10,58,18.20
2011,05,20,10,59,18.30
2011,05,20,11,00,18.30
2011,05,20,11,01,18.30
2011,05,20,11,02,18.40
2011,05,20,11,03,18.50
2011,05,20,11,04,18.50
2011,05,20,11,05,18.60
2011,05,20,11,06,18.60
2011,05,20,11,07,18.70
2011,05,20,11,08,18.70
2011,05,20,11,09,18.80
2011,05,20,11,10,18.80
2011,05,20,11,11,18.80
2011,05,20,11,12,18.80
2011,05,20,11,13,18.80
2011,05,20,11,14,18.80
2011,05,20,11,15,18.80
2011,05,20,11,16,18.80
2011,05,20,11,17,18.90
2011,05,20,11,18,19.00
2011,05,20,11,19,19.00
2011,05,20,11,20,19.00
2011,05,20,11,21,19.00
2011,05,20,11,22,19.00
2011,05,20,11,23,19.00
2011,05,20,11,24,19.00
2011,05,20,11,25,19.00
2011,05,20,11,26,18.90
2011,05,20,11,27,18.80
2011,05,20,11,28,18.80
2011,05,20,11,29,18.80
2011,05,20,11,30,18.80
2011,05,20,11,31,18.90
2011,05,20,11,32,18.90
2011,05,20,11,33,18.90
2011,05,20,11,34,18.70
2011,05,20,11,35,18.50
2011,05,20,11,36,18.40
2011,05,20,11,37,18.40
2011,05,20,11,38,18.40
2011,05,20,11,39,18.30
2011,05,20,11,40,18.30
2011,05,20,11,41,18.30
2011,05,20,11,42,18.30
2011,05,20,11,43,18.30
2011,05,20,11,44,18.40
2011,05,20,11,45,18.40
2011,05,20,11,46,18.40
2011,05,20,11,47,18.30
2011,05,20,11,48,18.30
2011,05,20,11,49,18.30
2011,05,20,11,50,18.20
2011,05,20,11,51,18.20
2011,05,20,11,52,18.20
2011,05,20,11,53,18.10
2011,05,20,11,54,18.00
2011,05,20,11,55,17.90
2011,05,20,11,56,17.90
2011,05,20,11,57,17.80
2011,05,20,11,58,17.70
2011,05,20,11,59,17.70
2011,05,20,12,00,17.70
2011,05,20,12,01,17.70
2011,05,20,12,02,17.70
2011,05,20,12,03,17.80
2011,05,20,12,04,17.80
2011,05,20,12,05,17.90
2011,05,20,12,06,18.00
2011,05,20,12,07,18.00
2011,05,20,12,08,18.00
2011,05,20,12,09,17.90
2011,05,20,12,10,17.90
2011,05,20,12,11,17.90
2011,05,20,12,12,17.80
2011,05,20,12,13,17.80
2011,05,20,12,14,17.80
2011,05,20,12,15,17.90
2011,05,20,12,16,17.90
2011,05,20,12,17,18.00
2011,05,20,12,18,18.10
2011,05,20,12,19,18.10
2011,05,20,12,20,18.20
2011,05,20,12,21,18.20
2011,05,20,12,22,18.20
2011,05,20,12,23,18.20
2011,05,20,12,24,18.20
2011,05,20,12,25,18.20
2011,05,20,12,26,18.20
2011,05,20,12,27,18.20
2011,05,20,12,28,18.30
2011,05,20,12,29,18.30
2011,05,20,12,30,18.40
2011,05,20,12,31,18.40
2011,05,20,12,32,18.30
2011,05,20,12,33,18.20
2011,05,20,12,34,18.20
2011,05,20,12,35,18.20
2011,05,20,12,36,18.20
2011,05,20,12,37,18.10
2011,05,20,12,38,18.10
2011,05,20,12,39,18.00
2011,05,20,12,40,18.00
2011,05,20,12,41,17.90
2011,05,20,12,42,17.90
2011,05,20,12,43,17.80
2011,05,20,12,44,17.80
2011,05,20,12,45,17.80
2011,05,20,12,46,17.80
2011,05,20,12,47,17.80
2011,05,20,12,48,17.80
2011,05,20,12,49,17.80
2011,05,20,12,50,17.80
2011,05,20,12,51,17.90
2011,05,20,12,52,17.90
2011,05,20,12,53,17.90
2011,05,20,12,54,18.00
2011,05,20,12,55,18.10
2011,05,20,12,56,18.10
2011,05,20,12,57,18.10
2011,05,20,12,58,18.10
2011,05,20,12,59,18.10
2011,05,20,13,00,18.20
2011,05,20,13,01,18.20
2011,05,20,13,02,18.30
2011,05,20,13,03,18.30
2011,05,20,13,04,18.40
2011,05,20,13,05,18.50
2011,05,20,13,06,18.60
2011,05,20,13,07,18.60
2011,05,20,13,08,18.60
2011,05,20,13,09,18.60
2011,05,20,13,10,18.60
2011,05,20,13,11,18.50
2011,05,20,13,12,18.40
2011,05,20,13,13,18.40
2011,05,20,13,14,18.40
2011,05,20,13,15,18.40
2011,05,20,13,16,18.40
2011,05,20,13,17,18.40
2011,05,20,13,18,18.40
2011,05,20,13,19,18.40
2011,05,20,13,20,18.50
2011,05,20,13,21,18.40
2011,05,20,13,22,18.40
2011,05,20,13,23,18.40
2011,05,20,13,24,18.50
2011,05,20,13,25,18.50
2011,05,20,13,26,18.60
2011,05,20,13,27,18.60
2011,05,20,13,28,18.60
2011,05,20,13,29,18.60
2011,05,20,13,30,18.60
2011,05,20,13,31,18.60
2011,05,20,13,32,18.60
2011,05,20,13,33,18.60
2011,05,20,13,34,18.60
2011,05,20,13,35,18.60
2011,05,20,13,36,18.60
2011,05,20,13,37,18.70
2011,05,20,13,38,18.70
2011,05,20,13,39,18.70
2011,05,20,13,40,18.70
2011,05,20,13,41,18.70
2011,05,20,13,42,18.70
2011,05,20,13,43,18.70
2011,05,20,13,44,18.70
2011,05,20,13,45,18.70
2011,05,20,13,46,18.60
2011,05,20,13,47,18.60
2011,05,20,13,48,18.50
2011,05,20,13,49,18.60
2011,05,20,13,50,18.60
2011,05,20,13,51,18.60
2011,05,20,13,52,18.70
2011,05,20,13,53,18.70
2011,05,20,13,54,18.70
2011,05,20,13,55,18.70
2011,05,20,13,56,18.70
2011,05,20,13,57,18.70
2011,05,20,13,58,18.80
2011,05,20,13,59,18.80
2011,05,20,14,00,18.80
2011,05,20,14,01,18.80
2011,05,20,14,02,18.80
2011,05,20,14,03,18.80
2011,05,20,14,04,18.80
2011,05,20,14,05,18.80
2011,05,20,14,06,18.80
2011,05,20,14,07,18.80
2011,05,20,14,08,18.80
2011,05,20,14,09,18.80
2011,05,20,14,10,18.80
2011,05,20,14,11,18.80
2011,05,20,14,12,18.90
2011,05,20,14,13,18.90
2011,05,20,14,14,18.90
2011,05,20,14,15,18.90
2011,05,20,14,16,19.00
2011,05,20,14,17,19.10
2011,05,20,14,18,19.10
2011,05,20,14,19,19.00
2011,05,20,14,20,19.00
2011,05,20,14,21,19.10
2011,05,20,14,22,19.10
2011,05,20,14,23,19.20
2011,05,20,14,24,19.30
2011,05,20,14,25,19.30
2011,05,20,14,26,19.30
2011,05,20,14,27,19.30
2011,05,20,14,28,19.30
2011,05,20,14,29,19.30
2011,05,20,14,30,19.40
2011,05,20,14,31,19.40
2011,05,20,14,32,19.40
2011,05,20,14,33,19.50
2011,05,20,14,34,19.50
2011,05,20,14,35,19.60
2011,05,20,14,36,19.70
2011,05,20,14,37,19.80
2011,05,20,14,38,19.80
2011,05,20,14,39,19.90
2011,05,20,14,40,19.90
2011,05,20,14,41,19.90
2011,05,20,14,42,19.80
2011,05,20,14,43,19.80
2011,05,20,14,44,19.70
2011,05,20,14,45,19.60
2011,05,20,14,46,19.50
2011,05,20,14,47,19.40
2011,05,20,14,48,19.40
2011,05,20,14,49,19.40
2011,05,20,14,50,19.40
2011,05,20,14,51,19.30
2011,05,20,14,52,19.30
2011,05,20,14,53,19.30
2011,05,20,14,54,19.30
2011,05,20,14,55,19.30
2011,05,20,14,56,19.30
2011,05,20,14,57,19.30
2011,05,20,14,58,19.30
2011,05,20,14,59,19.20
2011,05,20,15,00,19.20
2011,05,20,15,01,19.20
2011,05,20,15,02,19.20
2011,05,20,15,03,19.20
2011,05,20,15,04,19.20
2011,05,20,15,05,19.20
2011,05,20,15,06,19.20
2011,05,20,15,07,19.20
2011,05,20,15,08,19.20
2011,05,20,15,09,19.20
2011,05,20,15,10,19.20
2011,05,20,15,11,19.20
2011,05,20,15,12,19.20
2011,05,20,15,13,19.20
2011,05,20,15,14,19.10
2011,05,20,15,15,19.10
2011,05,20,15,16,19.10
2011,05,20,15,17,19.10
2011,05,20,15,18,19.10
2011,05,20,15,19,19.10
2011,05,20,15,20,19.00
2011,05,20,15,21,19.00
2011,05,20,15,22,18.90
2011,05,20,15,23,18.90
2011,05,20,15,24,18.90
2011,05,20,15,25,18.90
2011,05,20,15,26,18.90
2011,05,20,15,27,18.90
2011,05,20,15,28,18.80
2011,05,20,15,29,18.80
2011,05,20,15,30,18.80
2011,05,20,15,31,18.80
2011,05,20,15,32,18.80
2011,05,20,15,33,18.80
2011,05,20,15,34,18.70
2011,05,20,15,35,18.70
2011,05,20,15,36,18.70
2011,05,20,15,37,18.70
2011,05,20,15,38,18.80
2011,05,20,15,39,18.90
2011,05,20,15,40,18.90
2011,05,20,15,41,19.00
2011,05,20,15,42,19.10
2011,05,20,15,43,19.10
2011,05,20,15,44,19.10
2011,05,20,15,45,19.10
2011,05,20,15,46,19.10
2011,05,20,15,47,19.10
2011,05,20,15,48,19.10
2011,05,20,15,49,19.00
2011,05,20,15,50,19.00
2011,05,20,15,51,18.90
2011,05,20,15,52,18.90
2011,05,20,15,53,18.80
2011,05,20,15,54,18.80
2011,05,20,15,55,18.80
2011,05,20,15,56,18.80
2011,05,20,15,57,18.90
2011,05,20,15,58,18.90
2011,05,20,15,59,18.90
2011,05,20,16,00,19.00
2011,05,20,16,01,19.00
2011,05,20,16,02,19.10
2011,05,20,16,03,19.20
2011,05,20,16,04,19.30
2011,05,20,16,05,19.30
2011,05,20,16,06,19.40
2011,05,20,16,07,19.40
2011,05,20,16,08,19.40
2011,05,20,16,09,19.40
2011,05,20,16,10,19.30
2011,05,20,16,11,19.30
2011,05,20,16,12,19.20
2011,05,20,16,13,19.30
2011,05,20,16,14,19.30
2011,05,20,16,15,19.30
2011,05,20,16,16,19.40
2011,05,20,16,17,19.40
2011,05,20,16,18,19.40
2011,05,20,16,19,19.40
2011,05,20,16,20,19.50
2011,05,20,16,21,19.50
2011,05,20,16,22,19.60
2011,05,20,16,23,19.60
2011,05,20,16,24,19.60
2011,05,20,16,25,19.60
2011,05,20,16,26,19.60
2011,05,20,16,27,19.60
2011,05,20,16,28,19.60
2011,05,20,16,29,19.50
2011,05,20,16,30,19.50
2011,05,20,16,31,19.40
2011,05,20,16,32,19.40
2011,05,20,16,33,19.30
2011,05,20,16,34,19.30
2011,05,20,16,35,19.20
2011,05,20,16,36,19.20
2011,05,20,16,37,19.20
2011,05,20,16,38,19.20
2011,05,20,16,39,19.10
2011,05,20,16,40,19.10
2011,05,20,16,41,19.10
2011,05,20,16,42,19.00
2011,05,20,16,43,19.00
2011,05,20,16,44,19.00
2011,05,20,16,45,19.00
2011,05,20,16,46,19.00
2011,05,20,16,47,19.00
2011,05,20,16,48,19.00
2011,05,20,16,49,19.10
2011,05,20,16,50,19.10
2011,05,20,16,51,19.10
2011,05,20,16,52,19.10
2011,05,20,16,53,19.20
2011,05,20,16,54,19.20
2011,05,20,16,55,19.20
2011,05,20,16,56,19.20
2011,05,20,16,57,19.20
2011,05,20,16,58,19.20
2011,05,20,16,59,19.20
2011,05,20,17,00,19.20
2011,05,20,17,01,19.30
2011,05,20,17,02,19.40
2011,05,20,17,03,19.40
2011,05,20,17,04,19.40
2011,05,20,17,05,19.40
2011,05,20,17,06,19.40
2011,05,20,17,07,19.30
2011,05,20,17,08,19.30
2011,05,20,17,09,19.30
2011,05,20,17,10,19.20
2011,05,20,17,11,19.20
2011,05,20,17,12,19.20
2011,05,20,17,13,19.30
2011,05,20,17,14,19.30
2011,05,20,17,15,19.40
2011,05,20,17,16,19.50
2011,05,20,17,17,19.50
2011,05,20,17,18,19.40
2011,05,20,17,19,19.40
2011,05,20,17,20,19.40
2011,05,20,17,21,19.40
2011,05,20,17,22,19.40
2011,05,20,17,23,19.40
2011,05,20,17,24,19.50
2011,05,20,17,25,19.50
2011,05,20,17,26,19.60
2011,05,20,17,27,19.60
2011,05,20,17,28,19.70
2011,05,20,17,29,19.70
2011,05,20,17,30,19.70
2011,05,20,17,31,19.70
2011,05,20,17,32,19.70
2011,05,20,17,33,19.70
2011,05,20,17,34,19.60
2011,05,20,17,35,19.70
2011,05,20,17,36,19.60
2011,05,20,17,37,19.60
2011,05,20,17,38,19.60
2011,05,20,17,39,19.50
2011,05,20,17,40,19.50
2011,05,20,17,41,19.40
2011,05,20,17,42,19.40
2011,05,20,17,43,19.40